EW4792 Weather Reports


Display with metric or nautical units.
time (UTC)temp
F
wind
direction
speed
MPH
gust
MPH
rain 1hr
in
rain 24hr
in
rain mn
in
humidity
%
barometer
mb
20260904131545 80 147 6.0 9.0 0.00 0.00 0.00 88 1015.5
20260904131202 80 126 7.0 10.0 0.00 0.00 0.00 88 1015.8
20260904130543 80 141 7.0 11.0 0.00 0.00 0.00 88 1015.6
20260904130041 80 149 8.0 11.0 0.00 0.00 0.00 88 1015.4
20260904125636 80 149 9.0 12.0 0.00 0.00 0.00 88 1015.4
20260904125112 79 145 10.0 12.0 0.00 0.00 0.00 88 1015.3
20260904124607 79 153 9.0 11.0 0.00 0.00 0.00 88 1015.3
20260904123548 79 129 9.0 11.0 0.00 0.00 0.00 88 1015.3
20260904123159 80 138 8.0 10.0 0.00 0.00 0.00 88 1015.1
20260904122612 80 126 8.0 10.0 0.00 0.00 0.00 87 1015.1
20260904122121 80 134 8.0 10.0 0.00 0.00 0.00 87 1015.2
20260904121614 80 117 8.0 10.0 0.00 0.00 0.00 87 1015.1
20260904121112 80 125 7.0 9.0 0.00 0.00 0.00 87 1015.1
20260904120625 80 129 7.0 10.0 0.00 0.00 0.00 87 1014.9
20260904120128 80 111 9.0 10.0 0.00 0.00 0.00 87 1014.9
20260904115624 80 115 7.0 11.0 0.00 0.00 0.00 87 1014.8
20260904115122 80 135 8.0 11.0 0.00 0.00 0.00 87 1014.7
20260904114637 80 127 8.0 12.0 0.00 0.00 0.00 87 1014.7
20260904114039 80 150 9.0 12.0 0.00 0.00 0.00 87 1014.6
20260904113548 80 151 8.0 12.0 0.00 0.00 0.00 87 1014.5
20260904113103 80 176 9.0 12.0 0.00 0.00 0.00 87 1014.4
20260904112615 80 153 9.0 12.0 0.00 0.00 0.00 87 1014.3
20260904112131 80 157 9.0 12.0 0.00 0.00 0.00 87 1014.3
20260904111618 80 158 9.0 12.0 0.00 0.00 0.00 87 1014.3
20260904111117 80 150 8.0 11.0 0.00 0.00 0.00 87 1014.5
20260904110623 80 153 9.0 11.0 0.00 0.00 0.00 87 1014.5
20260904110135 80 165 8.0 10.0 0.00 0.00 0.00 87 1014.4
20260904105627 80 157 7.0 10.0 0.00 0.00 0.00 87 1014.4
20260904105039 80 138 8.0 10.0 0.00 0.00 0.00 87 1014.4
20260904104658 80 138 8.0 10.0 0.00 0.00 0.00 87 1014.5
20260904104131 80 132 8.0 10.0 0.00 0.00 0.00 86 1014.5
20260904103629 80 135 7.0 10.0 0.00 0.00 0.00 86 1014.4
20260904103127 80 136 6.0 10.0 0.00 0.00 0.00 86 1014.4
20260904102546 80 146 6.0 10.0 0.00 0.00 0.00 86 1014.4
20260904102111 80 135 8.0 11.0 0.00 0.00 0.00 86 1014.3
20260904101050 80 153 8.0 11.0 0.00 0.00 0.00 86 1014.2
20260904100605 80 168 8.0 11.0 0.00 0.00 0.00 86 1014.2
20260904100118 80 159 7.0 10.0 0.00 0.00 0.00 86 1014.3
20260904095555 80 167 7.0 10.0 0.00 0.00 0.00 86 1014.1
20260904095155 80 166 7.0 10.0 0.00 0.00 0.00 86 1014.2
20260904094632 80 173 7.0 9.0 0.00 0.00 0.00 86 1014.3
20260904094129 80 165 7.0 9.0 0.00 0.00 0.00 86 1014.3
20260904093626 80 173 8.0 10.0 0.00 0.00 0.00 86 1014.2
20260904093119 80 180 7.0 10.0 0.00 0.00 0.00 86 1014.2
20260904092618 80 178 7.0 10.0 0.00 0.00 0.00 86 1014.2
20260904092112 80 174 7.0 11.0 0.00 0.00 0.00 86 1014.3
20260904091611 80 182 9.0 11.0 0.00 0.00 0.00 86 1014.2
20260904091105 80 181 8.0 11.0 0.00 0.00 0.00 86 1014.3
20260904090610 80 161 8.0 11.0 0.00 0.00 0.00 85 1014.1
20260904090109 80 153 8.0 10.0 0.00 0.00 0.00 86 1014.1
20260904085546 80 153 8.0 12.0 0.00 0.00 0.00 85 1014.1
20260904085047 80 165 9.0 12.0 0.00 0.00 0.00 85 1014.1
20260904084546 80 179 7.0 10.0 0.00 0.00 0.00 85 1014.1
20260904084125 81 159 8.0 10.0 0.00 0.00 0.00 85 1014.1
20260904083637 81 196 8.0 10.0 0.00 0.00 0.00 85 1014.1
20260904083128 80 181 7.0 11.0 0.00 0.00 0.00 85 1014.2
20260904082620 81 184 7.0 12.0 0.00 0.00 0.00 85 1014.2
20260904082139 81 192 8.0 11.0 0.00 0.00 0.00 85 1014.2
20260904081632 81 180 8.0 10.0 0.00 0.00 0.00 85 1014.3
20260904081129 81 179 8.0 11.0 0.00 0.00 0.00 85 1014.4
20260904080627 81 200 9.0 11.0 0.00 0.00 0.00 85 1014.4
20260904080127 81 184 8.0 11.0 0.00 0.00 0.00 85 1014.3
20260904075604 81 172 8.0 13.0 0.00 0.00 0.00 85 1014.4
20260904074548 81 179 10.0 15.0 0.00 0.00 0.00 84 1014.5
20260904074047 81 188 10.0 16.0 0.00 0.00 0.00 84 1014.5
20260904073629 81 182 12.0 16.0 0.00 0.00 0.00 84 1014.3
20260904073129 81 197 10.0 15.0 0.00 0.00 0.00 84 1014.5
20260904072622 82 178 11.0 14.0 0.00 0.00 0.00 84 1014.6
20260904072119 82 178 9.0 13.0 0.00 0.00 0.00 84 1014.7
20260904071552 82 187 9.0 16.0 0.00 0.00 0.00 84 1014.8
20260904071043 82 172 11.0 16.0 0.00 0.00 0.00 84 1014.8
20260904070540 82 184 12.0 16.0 0.00 0.00 0.00 84 1014.8
20260904070044 82 176 11.0 16.0 0.00 0.00 0.00 84 1014.8
20260904065540 82 177 11.0 15.0 0.00 0.00 0.00 83 1015.0
20260904065055 82 182 11.0 15.0 0.00 0.00 0.00 83 1015.0
20260904064551 82 204 9.0 13.0 0.00 0.00 0.00 83 1015.1
20260904064045 82 182 9.0 15.0 0.00 0.00 0.00 84 1014.9
20260904063541 82 182 12.0 18.0 0.00 0.00 0.00 83 1015.0
20260904063056 82 176 11.0 18.0 0.00 0.00 0.00 83 1015.0
20260904062553 82 175 10.0 19.0 0.00 0.00 0.00 83 1015.0
20260904062048 82 161 13.0 19.0 0.00 0.00 0.00 82 1014.9
20260904061544 82 172 13.0 18.0 0.00 0.00 0.00 82 1014.9
20260904061057 82 169 13.0 18.0 0.00 0.00 0.00 82 1014.9
20260904060553 82 166 13.0 20.0 0.00 0.00 0.00 82 1015.1
20260904060108 82 166 14.0 20.0 0.00 0.00 0.00 82 1015.0
20260904055543 82 176 12.0 20.0 0.00 0.00 0.00 82 1015.1
20260904055058 82 180 14.0 20.0 0.00 0.00 0.00 81 1015.0
20260904054553 82 157 14.0 16.0 0.00 0.00 0.00 82 1015.1
20260904054046 82 169 14.0 16.0 0.00 0.00 0.00 81 1014.9
20260904053547 82 180 13.0 16.0 0.00 0.00 0.00 80 1014.9
20260904053041 82 160 12.0 22.0 0.00 0.00 0.00 80 1014.8
20260904052557 82 170 14.0 22.0 0.00 0.00 0.00 80 1014.9
20260904052051 83 153 13.0 20.0 0.00 0.00 0.00 80 1014.9
20260904051548 83 168 15.0 20.0 0.00 0.00 0.00 79 1014.8
20260904051043 83 160 14.0 21.0 0.00 0.00 0.00 79 1014.7
20260904050538 83 177 16.0 21.0 0.00 0.00 0.00 79 1014.6
20260904050052 83 166 13.0 19.0 0.00 0.00 0.00 78 1014.7
20260904045620 83 169 14.0 21.0 0.00 0.00 0.00 78 1014.7
20260904045135 83 190 12.0 22.0 0.00 0.00 0.00 78 1014.8
20260904044538 83 170 17.0 22.0 0.00 0.00 0.00 77 1014.8
20260904044038 84 175 17.0 21.0 0.00 0.00 0.00 77 1014.7
20260904043550 84 160 14.0 19.0 0.00 0.00 0.00 76 1014.7
20260904043055 84 158 14.0 19.0 0.00 0.00 0.00 75 1014.8
20260904042553 84 159 14.0 19.0 0.00 0.00 0.00 74 1014.7
20260904042047 84 153 15.0 23.0 0.00 0.00 0.00 73 1014.7
20260904041546 84 160 17.0 24.0 0.00 0.00 0.00 72 1014.6
20260904041124 85 156 19.0 29.0 0.00 0.00 0.00 74 1014.5
20260904040616 85 165 21.0 29.0 0.00 0.00 0.00 72 1014.5
20260904040107 85 159 20.0 25.0 0.00 0.00 0.00 71 1014.5
20260904035607 85 161 21.0 25.0 0.00 0.00 0.00 71 1014.3
20260904035105 85 155 19.0 24.0 0.00 0.00 0.00 72 1014.2
20260904034133 85 139 21.0 26.0 0.00 0.00 0.00 71 1014.2
20260904033626 86 141 20.0 26.0 0.00 0.00 0.00 71 1014.3
20260904032637 86 163 20.0 26.0 0.00 0.00 0.00 70 1014.1
20260904032129 86 145 17.0 23.0 0.00 0.00 0.00 71 1014.0
20260904031621 86 137 18.0 23.0 0.00 0.00 0.00 69 1014.1
20260904030552 86 149 13.0 19.0 0.00 0.00 0.00 71 1014.0
20260904030045 86 150 13.0 18.0 0.00 0.00 0.00 71 1013.8
20260904025603 86 142 13.0 18.0 0.00 0.00 0.00 72 1013.8
20260904025105 86 137 13.0 16.0 0.00 0.00 0.00 71 1013.7
20260904024136 86 137 12.0 18.0 0.00 0.00 0.00 72 1013.7
20260904023635 86 133 14.0 18.0 0.00 0.00 0.00 71 1013.6
20260904023125 86 132 12.0 15.0 0.00 0.00 0.00 71 1013.5
20260904022137 86 130 10.0 13.0 0.00 0.00 0.00 71 1013.2
20260904021635 86 130 11.0 18.0 0.00 0.00 0.00 70 1013.0
20260904021119 86 120 11.0 18.0 0.00 0.00 0.00 71 1013.1
20260904020616 86 129 11.0 15.0 0.00 0.00 0.00 70 1012.9
20260904020108 86 121 11.0 15.0 0.00 0.00 0.00 70 1013.0
20260904015135 86 130 9.0 14.0 0.00 0.00 0.00 71 1013.0
20260904014627 86 122 10.0 14.0 0.00 0.00 0.00 70 1013.1
20260904014119 86 134 11.0 14.0 0.00 0.00 0.00 69 1013.0
20260904013617 86 126 10.0 12.0 0.00 0.00 0.00 70 1012.9
20260904013059 86 126 10.0 13.0 0.00 0.00 0.00 70 1012.8
20260904012551 86 131 11.0 14.0 0.00 0.00 0.00 69 1012.8
20260904012056 87 107 11.0 14.0 0.00 0.00 0.00 68 1012.7
20260904011548 87 113 11.0 18.0 0.00 0.00 0.00 69 1012.7
20260904011047 87 118 12.0 20.0 0.00 0.00 0.00 69 1012.6
20260904010544 87 123 13.0 21.0 0.00 0.00 0.00 68 1012.6
20260904010043 87 124 14.0 21.0 0.00 0.00 0.00 68 1012.6
20260904005554 87 125 13.0 21.0 0.00 0.00 0.00 68 1012.6
20260904005054 87 111 14.0 20.0 0.00 0.00 0.00 66 1012.5
20260904004553 88 133 14.0 20.0 0.00 0.00 0.00 67 1012.5
20260904004043 88 126 13.0 25.0 0.00 0.00 0.00 66 1012.6
20260904003539 88 133 16.0 25.0 0.00 0.00 0.00 65 1012.5
20260904003047 88 119 15.0 24.0 0.00 0.00 0.00 65 1012.6
20260904002541 88 126 17.0 24.0 0.00 0.00 0.00 64 1012.5
20260904002044 88 126 18.0 23.0 0.00 0.00 0.00 63 1012.4
20260904001551 89 118 17.0 25.0 0.00 0.00 0.00 64 1012.5
20260904001054 89 131 18.0 25.0 0.00 0.00 0.00 63 1012.5
20260904000603 89 124 18.0 24.0 0.00 0.00 0.00 62 1012.4
20260904000116 90 117 15.0 23.0 0.00 0.00 0.00 61 1012.3
20260903235626 90 124 15.0 23.0 0.00 0.00 0.00 62 1012.2
20260903235118 90 120 16.0 23.0 0.00 0.00 0.00 61 1012.2
20260903234631 90 130 12.0 27.0 0.00 0.00 0.00 61 1012.1
20260903234130 90 124 16.0 27.0 0.00 0.00 0.00 60 1012.0
20260903233604 91 104 16.0 23.0 0.00 0.00 0.00 59 1012.0
20260903232546 93 109 11.0 21.0 0.00 0.00 0.00 56 1011.7
20260903232103 94 129 12.0 19.0 0.00 0.00 0.00 53 1011.7
20260903231545 94 136 13.0 19.0 0.00 0.00 0.00 53 1011.6
20260903231050 93 133 12.0 16.0 0.00 0.00 0.00 53 1011.6
20260903230559 93 143 12.0 16.0 0.00 0.00 0.00 53 1011.6
20260903230117 93 146 13.0 16.0 0.00 0.00 0.00 53 1011.8
20260903225630 93 142 11.0 15.0 0.00 0.00 0.00 53 1011.6
20260903225140 93 126 9.0 16.0 0.00 0.00 0.00 52 1011.6
20260903224632 93 135 13.0 16.0 0.00 0.00 0.00 52 1011.5
20260903224128 92 143 11.0 16.0 0.00 0.00 0.00 56 1011.6
20260903223139 92 146 15.0 21.0 0.00 0.00 0.00 56 1011.7
20260903222630 92 153 15.0 21.0 0.00 0.00 0.00 56 1011.6
20260903221546 93 138 15.0 27.0 0.00 0.00 0.00 54 1011.4
20260903221100 93 137 18.0 27.0 0.00 0.00 0.00 53 1011.5
20260903220552 93 124 14.0 23.0 0.00 0.00 0.00 54 1011.6
20260903220147 94 123 16.0 23.0 0.00 0.00 0.00 53 1011.6
20260903215618 94 129 17.0 25.0 0.00 0.00 0.00 55 1011.6
20260903215110 95 137 18.0 25.0 0.00 0.00 0.00 53 1011.5
20260903214134 95 195 9.0 12.0 0.00 0.00 0.00 52 1011.4
20260903213627 95 195 5.0 9.0 0.00 0.00 0.00 53 1011.4
20260903213125 95 182 6.0 9.0 0.00 0.00 0.00 53 1011.6
20260903212618 95 144 6.0 10.0 0.00 0.00 0.00 49 1011.6
20260903212111 95 136 8.0 10.0 0.00 0.00 0.00 52 1011.6
20260903211548 94 175 5.0 9.0 0.00 0.00 0.00 53 1011.6
20260903211052 94 168 3.0 7.0 0.00 0.00 0.00 54 1011.8
20260903210546 94 180 3.0 6.0 0.00 0.00 0.00 54 1011.9
20260903210050 95 192 4.0 8.0 0.00 0.00 0.00 55 1011.9
20260903205547 94 199 5.0 9.0 0.00 0.00 0.00 52 1011.9
20260903205053 94 198 7.0 9.0 0.00 0.00 0.00 54 1012.1
20260903204548 94 187 6.0 11.0 0.00 0.00 0.00 56 1012.1
20260903204047 94 159 8.0 11.0 0.00 0.00 0.00 54 1012.1
20260903203547 94 193 6.0 11.0 0.00 0.00 0.00 54 1012.3
20260903203045 94 174 8.0 11.0 0.00 0.00 0.00 55 1012.4
20260903202545 94 159 6.0 8.0 0.00 0.00 0.00 52 1012.5
20260903202043 94 127 1.0 8.0 0.00 0.00 0.00 52 1012.4
20260903201552 94 101 4.0 8.0 0.00 0.00 0.00 52 1012.4
20260903201135 94 128 5.0 8.0 0.00 0.00 0.00 54 1012.4
20260903200648 93 178 5.0 13.0 0.00 0.00 0.00 55 1012.5
20260903200125 93 160 10.0 13.0 0.00 0.00 0.00 54 1012.5
20260903195637 93 173 4.0 7.0 0.00 0.00 0.00 56 1012.6
20260903195050 93 168 2.0 10.0 0.00 0.00 0.00 56 1012.8
20260903194656 93 162 6.0 10.0 0.00 0.00 0.00 56 1012.7
20260903194127 93 215 3.0 5.0 0.00 0.00 0.00 57 1012.9
20260903193619 92 165 0.0 1.0 0.00 0.00 0.00 58 1012.9
20260903193117 92 165 0.0 2.0 0.00 0.00 0.00 58 1012.9
20260903192616 92 165 0.0 2.0 0.00 0.00 0.00 58 1013.0
20260903192114 92 168 1.0 4.0 0.00 0.00 0.00 59 1013.2
20260903191629 92 170 1.0 4.0 0.00 0.00 0.00 58 1013.1
20260903191112 92 206 0.0 8.0 0.00 0.00 0.00 60 1013.2
20260903190625 92 227 5.0 10.0 0.00 0.00 0.00 61 1013.3
20260903190123 91 211 8.0 10.0 0.00 0.00 0.00 60 1013.5
20260903185621 91 206 1.0 9.0 0.00 0.00 0.00 63 1013.5
20260903185113 91 179 6.0 9.0 0.00 0.00 0.00 61 1013.7
20260903184615 91 193 2.0 9.0 0.00 0.00 0.00 62 1013.8
20260903184137 90 196 7.0 9.0 0.00 0.00 0.00 62 1013.9
20260903183635 91 150 4.0 6.0 0.00 0.00 0.00 63 1014.0
20260903183052 90 157 5.0 13.0 0.00 0.00 0.00 62 1014.2
20260903182630 90 194 8.0 13.0 0.00 0.00 0.00 63 1014.3
20260903182121 90 209 10.0 13.0 0.00 0.00 0.00 61 1014.3
20260903181631 90 212 8.0 13.0 0.00 0.00 0.00 63 1014.4
20260903181128 90 249 9.0 13.0 0.00 0.00 0.00 63 1014.5
20260903180642 89 208 7.0 11.0 0.00 0.00 0.00 64 1014.6
20260903180112 89 207 4.0 9.0 0.00 0.00 0.00 66 1014.5
20260903175606 89 183 4.0 7.0 0.00 0.00 0.00 67 1014.7
20260903175103 89 196 3.0 11.0 0.00 0.00 0.00 68 1014.7
20260903174616 88 186 6.0 12.0 0.00 0.00 0.00 67 1014.7
20260903174112 88 221 4.0 12.0 0.00 0.00 0.00 67 1014.7
20260903173610 88 182 6.0 16.0 0.00 0.00 0.00 69 1014.8
20260903173129 88 207 11.0 16.0 0.00 0.00 0.00 70 1014.8
20260903172630 87 184 7.0 13.0 0.00 0.00 0.00 69 1014.8
20260903172108 88 232 10.0 19.0 0.00 0.00 0.00 69 1014.9
20260903171607 87 199 9.0 19.0 0.00 0.00 0.00 70 1015.0
20260903171106 87 193 12.0 19.0 0.00 0.00 0.00 70 1015.1
20260903170047 87 193 10.0 13.0 0.00 0.00 0.00 71 1015.2
20260903165546 87 215 10.0 13.0 0.00 0.00 0.00 71 1015.2
20260903165047 86 172 8.0 15.0 0.00 0.00 0.00 72 1015.2
20260903164610 86 193 12.0 15.0 0.00 0.00 0.00 73 1015.2
20260903164121 86 201 9.0 14.0 0.00 0.00 0.00 72 1015.3
20260903163553 86 212 8.0 11.0 0.00 0.00 0.00 74 1015.1
20260903163058 86 162 6.0 12.0 0.00 0.00 0.00 74 1015.3
20260903162608 86 180 9.0 12.0 0.00 0.00 0.00 74 1015.3
20260903162121 85 209 9.0 12.0 0.00 0.00 0.00 75 1015.4
20260903161553 85 189 8.0 13.0 0.00 0.00 0.00 75 1015.4
20260903161052 85 229 8.0 13.0 0.00 0.00 0.00 74 1015.5
20260903160608 85 228 9.0 18.0 0.00 0.00 0.00 75 1015.4
20260903160108 85 220 12.0 18.0 0.00 0.00 0.00 74 1015.4
20260903155555 85 207 9.0 12.0 0.00 0.00 0.00 76 1015.4
20260903155038 85 187 7.0 12.0 0.00 0.00 0.00 76 1015.3
20260903154624 85 165 8.0 15.0 0.00 0.00 0.00 77 1015.3
20260903154126 84 231 10.0 15.0 0.00 0.00 0.00 76 1015.5
20260903153619 84 230 12.0 15.0 0.00 0.00 0.00 76 1015.4
20260903153118 84 204 10.0 15.0 0.00 0.00 0.00 77 1015.4
20260903152616 84 195 13.0 15.0 0.00 0.00 0.00 78 1015.5
20260903152115 84 189 12.0 15.0 0.00 0.00 0.00 78 1015.4
20260903151552 83 204 7.0 12.0 0.00 0.00 0.00 79 1015.3
20260903151053 83 205 9.0 16.0 0.00 0.00 0.00 79 1015.4
20260903150556 83 203 13.0 16.0 0.00 0.00 0.00 80 1015.4
20260903150058 83 211 13.0 16.0 0.00 0.00 0.00 80 1015.4
20260903145550 83 213 11.0 15.0 0.00 0.00 0.00 80 1015.3
20260903145048 83 199 8.0 15.0 0.00 0.00 0.00 81 1015.3
20260903144557 83 212 12.0 19.0 0.00 0.00 0.00 81 1015.3
20260903144050 82 205 15.0 19.0 0.00 0.00 0.00 81 1015.3
20260903143544 82 209 9.0 14.0 0.00 0.00 0.00 82 1015.3
20260903143143 82 205 11.0 15.0 0.00 0.00 0.00 82 1015.4
20260903142621 82 207 11.0 15.0 0.00 0.00 0.00 82 1015.3
20260903142116 82 205 11.0 16.0 0.00 0.00 0.00 83 1015.4
20260903141625 82 195 10.0 16.0 0.00 0.00 0.00 83 1015.4
20260903141039 82 222 10.0 16.0 0.00 0.00 0.00 83 1015.4
20260903140648 82 227 12.0 19.0 0.00 0.00 0.00 84 1015.4
20260903140137 82 217 12.0 19.0 0.00 0.00 0.00 83 1015.4
20260903135545 82 212 12.0 19.0 0.00 0.00 0.00 83 1015.4
20260903135104 81 222 9.0 15.0 0.00 0.00 0.00 84 1015.3
20260903134603 81 224 11.0 15.0 0.00 0.00 0.00 84 1015.5
20260903134112 81 228 9.0 15.0 0.00 0.00 0.00 84 1015.4
20260903133613 81 233 8.0 11.0 0.00 0.00 0.00 84 1015.6
20260903133115 81 186 7.0 10.0 0.00 0.00 0.00 84 1015.6
20260903132623 81 206 8.0 10.0 0.00 0.00 0.00 84 1015.5
20260903132057 81 199 8.0 11.0 0.00 0.00 0.00 84 1015.5